Regional Weather Roundup
Issued by NWS

Home | Current Version | Previous Version | Text Only | Print | Product List | Glossary Off
Versions: 1 2 3 4 5 6 7 8 9 10 11 12 13 14 15 16 17 18 19 20 21 22 23 24 25 26 27 28 29 30 31 32 33 34 35 36 37 38 39 40 41 42 43 44 45 46 47 48 49 50

000
ASUS43 KDTX 271710
RWRMI
MICHIGAN HOURLY REGIONAL WEATHER ROUNDUP
NATIONAL WEATHER SERVICE DETROIT/PONTIAC MI
100 PM EDT WED MAY 27 2015

NOTE: "FAIR" INDICATES FEW OR NO CLOUDS BELOW 12,000 FEET WITH NO
SIGNIFICANT WEATHER AND/OR OBSTRUCTION TO VISIBILITY.

MIZ047>049-052>055-059>063-066>070-074>076-081>083-271800-
SOUTHEAST LOWER MICHIGAN

CITY           SKY/WX    TMP DP  RH WIND       PRES   REMARKS
ADRIAN         LGT RAIN  66  61  84 SW6       30.00R
ALMA           PTSUNNY   74  61  63 SW17G24   29.91S
ANN ARBOR      PTSUNNY   74  64  71 SW15G23   29.97S
BAD AXE        CLOUDY    76  57  52 SW21G26   29.90S
CARO           MOSUNNY   78  59  50 SW23G30   29.90S
DETROIT CITY   MOSUNNY   79  63  57 SW16      29.96F
DETROIT        PTSUNNY   79  64  60 SW17      29.97F
FLINT          MOSUNNY   78  58  49 W20G25    29.93S
GROSSE ILE     PTSUNNY   75  66  73 S14G20    29.97F
HILLSDALE      MOSUNNY   77  64  65 SW15      29.98F
HOWELL         PTSUNNY   79  59  49 SW12G20   29.95S

CITY           SKY/WX    TMP DP  RH WIND       PRES   REMARKS
JACKSON        MOSUNNY   77  61  57 SW20G26   29.95F
LAMBERTVILLE   PTSUNNY   79  63  57 SW9G18    29.99F
LANSING        PTSUNNY   75  58  55 W17G26    29.93F
LAPEER         FAIR      78  56  47 W13G25    29.93F
MASON          MOSUNNY   74  59  59 SW9G17    29.94F
MONROE         MOSUNNY   79  63  57 SW22G29   29.96F
MT. CLEMENS    TSTM      75  64  67 SW14G21   29.94S
PONTIAC        PTSUNNY   78  60  53 SW16G24   29.95S
PORT HOPE        N/A     77  60  55 SW10G23   29.86S
PORT HURON     PTSUNNY   79  61  53 SW14G26   29.94F
TRI CITIES     PTSUNNY   77  59  53 SW21G30   29.90R
MIDLAND        FAIR      77  59  53 SW21G28   29.88R
TROY           MOSUNNY   80  63  56 SW17G24   29.97F
SAGINAW HB     PTSUNNY   77  57  50 SW25G32   29.89S
$$
MIZ043>046-050>051-056>058-064>065-071>073-077>080-271800-
SOUTHWEST LOWER MICHIGAN

CITY           SKY/WX    TMP DP  RH WIND       PRES   REMARKS
BATTLE CREEK   HVY RAIN  68  62  81 W13       29.97R
BENTON HARBOR  MOSUNNY   71  61  70 W20       29.97R
BIG RAPIDS     CLOUDY    66  56  70 W16       29.91R
COLDWATER      CLOUDY    74  61  64 SW14G25   29.97S
FREMONT        CLOUDY    64  59  81 SW13      29.93R
HOLLAND        PTSUNNY   71  60  68 SW20G29   29.96S
GRAND RAPIDS   PTSUNNY   71  59  65 W22       29.94S
IONIA          FAIR      75  60  60 W17G28    29.92S
KALAMAZOO      LGT RAIN  68  61  78 SW15      29.96R
LUDINGTON      CLOUDY    56  52  86 SW12      29.93R
MARSHALL       PTSUNNY   73  63  72 SW10G17   29.95S
MOUNT PLEASANT PTSUNNY   72  59  62 SW21G26   29.90R
MUSKEGON       CLOUDY    63  56  78 SW17      29.95R
SOUTH HAVEN    SUNNY     71  60  67 W15       29.97R
$$
MIZ016>042-271800-
NORTHERN LOWER MICHIGAN

CITY           SKY/WX    TMP DP  RH WIND       PRES   REMARKS
ALPENA         CLOUDY    74  56  53 SW18G29   29.80S
BEAVER ISLAND  HVY RAIN  52  51  98 SW14G20   29.83R
BELLAIRE       CLOUDY    62  55  78 SW9G24    29.85S
CADILLAC       CLOUDY    63  56  78 W14       29.89R
CHARLEVOIX     DRIZZLE   55  55  99 SW9       29.87S
FRANKFORT      HAZE      54  48  82 W7        29.89R VSB 3/4
GAYLORD        CLOUDY    63  58  83 SW21      29.84R
GRAYLING       CLOUDY    66  55  68 SW14G25   29.86S
HARBOR SPRINGS DRIZZLE   51  50  98 W7        29.84R
HOUGHTON LAKE  PTSUNNY   70  57  63 SW16      29.86S
MANISTEE       CLOUDY    55  50  82 W10       29.92R
OSCODA         MOSUNNY   78  60  53 SW26G32   29.82F
PELLSTON       CLOUDY    56  53  90 W12G23    29.82R
ROGERS CITY    CLOUDY    71  56  59 SW18G33   29.79S
TRAVERSE CITY  CLOUDY    62  56  80 W13       29.85R
$$
MIZ007>008-015-271800-
EASTERN UPPER MICHIGAN

CITY           SKY/WX    TMP DP  RH WIND       PRES   REMARKS
KINROSS        CLOUDY    54  54 100 SW10      29.76R
MACKINAC ISLAN CLOUDY    50  50 100 SW14G26   29.79S FOG
NEWBERRY       RAIN      52  52  99 W13       29.78R
S. S. MARIE    LGT RAIN  55  53  93 SW10      29.74R FOG
MUNISING         N/A     56  53  90 E5        29.80R
$$
MIZ004>006-011>014-085-271800-
CENTRAL UPPER MICHIGAN

CITY           SKY/WX    TMP DP  RH WIND       PRES   REMARKS
MANISTIQUE     RAIN      59  57  92 W8        29.81R
ESCANABA       CLOUDY    61  55  82 W7        29.84R
MENOMINEE      CLOUDY    63  55  77 SW5       29.88S
SAWYER-GWINN   MOSUNNY   59  55  88 W5        29.82R
$$
MIZ001>003-009>011-084-271800-
WESTERN UPPER MICHIGAN

CITY           SKY/WX    TMP DP  RH WIND       PRES   REMARKS
IRON MOUNTAIN  CLOUDY    66  58  75 W9        29.83R
HOUGHTON       PTSUNNY   66  53  63 W23       29.80R
COPPER HARBOR    N/A     64  53  67 N12G17    29.77R
IRONWOOD       MOSUNNY   72  57  60 W9        29.82S
$$

ABBREVIATIONS USED IN REMARKS
   TC - TEMPERATURE IN CELSIUS
  WCI - WIND CHILL INDEX
   HX - HEAT INDEX
  VSB - VISIBILITY



USA.gov is the U.S. government's official web portal to all federal, state and local government web resources and services.